Regional Weather Roundup
Issued by NWS

Home | Current Version | Previous Version | Graphics & Text | Print | Product List | Glossary On
Versions: 1 2 3 4 5 6 7 8 9 10 11 12 13 14 15 16 17 18 19 20 21 22 23 24 25 26 27 28 29 30 31 32 33 34 35 36 37 38 39 40 41 42 43 44 45 46 47 48 49 50
000
ASUS43 KOAX 210902
RWRNE

WEATHER ROUNDUP FOR NEBRASKA
NATIONAL WEATHER SERVICE OMAHA NE
400 AM CDT TUE OCT 21 2014

NOTES: SATELLITE DATA IS BEING USED TO AUGMENT CLOUD COVER ABOVE
       12000 FEET.
       "FAIR" INDICATES FEW OR NO CLOUDS BELOW 12,000 FEET WITH NO
       SIGNIFICANT WEATHER AND/OR OBSTRUCTIONS TO VISIBILITY.

  * THESE STATIONS DO NOT REPORT WEATHER SUCH AS RAIN...SNOW OR FOG.

NEZ001>004-019>022-054>056-211000-
NEBRASKA PANHANDLE

CITY           SKY/WX    TMP DP  RH WIND       PRES   REMARKS
SCOTTSBLUFF    CLEAR     50  41  71 SE8       29.98F
ALLIANCE       CLEAR     49  42  77 S13       29.98F
CHADRON        CLEAR     60  42  51 SW13      29.90F
KIMBALL        CLEAR     47  41  78 S10       30.00F
SIDNEY         CLEAR     50  42  74 S10       30.03F
$$

NEZ057>060-069>072-079>082-211000-
SOUTHWEST NEBRASKA

CITY           SKY/WX    TMP DP  RH WIND       PRES   REMARKS
NORTH PLATTE   CLEAR     56  39  53 S6        30.04F
IMPERIAL       CLEAR     53  38  56 S9        30.04F
LEXINGTON      CLEAR     52  41  66 SW3       30.06S
MCCOOK         CLEAR     46  38  73 CALM      30.06F
OGALLALA       CLEAR     49  40  71 CALM      30.04S
$$

NEZ005>010-023>029-035>040-094-211000-
NORTH CENTRAL NEBRASKA

CITY           SKY/WX    TMP DP  RH WIND       PRES   REMARKS
VALENTINE      CLEAR     52  39  61 S10       29.96F
AINSWORTH      CLEAR     52  40  63 S10       29.99S
BROKEN BOW     CLEAR     48  40  73 CALM      30.04F
O`NEILL        CLEAR     49  42  76 S7        30.03F
ORD            CLEAR     41  38  89 CALM      30.05S
THEDFORD       CLEAR     52  40  64 CALM      30.02F
$$

NEZ041-046>049-061>064-073>077-083>087-211000-
SOUTH CENTRAL NEBRASKA

CITY           SKY/WX    TMP DP  RH WIND       PRES   REMARKS
GRAND ISLAND   CLEAR     50  40  68 S8        30.08S
AURORA         CLEAR     47  37  69 S6        30.08S
HASTINGS       CLEAR     51  40  65 S7        30.07F
HEBRON         CLEAR     40  37  89 CALM      30.09S
HOLDREGE       CLEAR     46  39  76 CALM      30.07S
KEARNEY *      CLEAR     43  36  75 S3        30.08S
YORK           CLEAR     43  37  81 SW6       30.09R
$$

NEZ011>018-030>034-042>045-211000-
NORTHEAST NEBRASKA

CITY           SKY/WX    TMP DP  RH WIND       PRES   REMARKS
NORFOLK        CLEAR     41  35  79 CALM      30.07S
ALBION         CLEAR     39  34  83 CALM      30.07S
BLAIR          CLEAR     51  41  68 CALM      30.08S
COLUMBUS *     CLEAR     37  34  87 CALM      30.09S
FREMONT        CLEAR     43  41  93 CALM      30.08F
TEKAMAH        CLEAR     38  35  89 S5        30.08S WCI  34
WAYNE          CLEAR     35  33  90 SW3       30.09S
$$

NEZ050>053-065>068-078-088>093-211000-
SOUTHEAST NEBRASKA

CITY           SKY/WX    TMP DP  RH WIND       PRES   REMARKS
LINCOLN        CLEAR     40  36  86 N3        30.11R
OMAHA EPPLEY   CLEAR     44  40  85 SE6       30.09S
BEATRICE       CLEAR     39  36  89 CALM      30.09S FOG
FALLS CITY     CLEAR     41  38  89 CALM      30.09S
NEBRASKA CITY  CLEAR     47  33  57 SW6       30.09S
PLATTSMOUTH    CLEAR     53  36  53 S3        30.08F
$$

NEZ044-045-051>053-067-211000-
OMAHA AREA

CITY           SKY/WX    TMP DP  RH WIND       PRES   REMARKS
OMAHA EPPLEY   CLEAR     44  40  85 SE6       30.09S
BLAIR          CLEAR     51  41  68 CALM      30.08S
FREMONT        CLEAR     43  41  93 CALM      30.08F
MILLARD        CLEAR     42  41  96 CALM      30.08F
OFFUTT AFB     CLEAR     40  40 100 SW1       30.07F
PLATTSMOUTH    CLEAR     53  36  53 S3        30.08F
WAHOO          FAIR      39  36  86 CALM      30.09S FOG
$$



USA.gov is the U.S. government's official web portal to all federal, state and local government web resources and services.